Weather History for Craig, CO

Change the Weather History Date:

Monday, February 18, 2013

  Actual Average Record
Temperature  
Mean Temperature 18 °F 21 °F  
Max Temperature 29 °F 34 °F 45 °F (2014)
Min Temperature 7 °F 8 °F -9 °F (2008)
Degree Days  
Heating Degree Days 47 44  
Month to date heating degree days 840 824  
Since 1 July heating degree days 5814 5908  
Cooling Degree Days 0 0  
Month to date cooling degree days 0 0  
Year to date cooling degree days 0 0  
Moisture  
Dew Point 10 °F    
Average Humidity 60    
Maximum Humidity 77    
Minimum Humidity 42    
Precipitation  
Precipitation T in 0.03 in 0.10 in (2000)
Month to date precipitation 0.14 0.53  
Year to date precipitation 0.85 1.41  
Sea Level Pressure  
Sea Level Pressure 30.17 in    
Wind  
Wind Speed 7 mph (WSW)    
Max Wind Speed 16 mph    
Max Gust Speed 21 mph    
Visibility 10 miles    
Events Snow    
T = Trace of Precipitation, MM = Missing Value Source: NWS Daily Summary

Daily Weather History Graph

Daily Weather History Graph

Search for Another Location

Airport:

Trip Planner

Search our weather history database for the weather conditions in past years. The results will help you decide how hot, cold, wet, or windy it might be!

Date:

Astronomy

Feb. 18, 2013 Rise Set
Actual Time 6:59 AM MST 5:49 PM MST
Civil Twilight 6:31 AM MST 6:17 PM MST
Nautical Twilight 5:59 AM MST 6:48 PM MST
Astronomical Twilight 5:28 AM MST 7:20 PM MST
Moon 11:36 AM MST (2/18) 1:42 AM MST (2/18)
Length of Visible Light 11h 45m
Length of Day
10h 49m
First Quarter, 59% of the Moon is Illuminated
Feb 18
First Quarter
Feb 25
Full
Mar 4
Last Quarter
Mar 11
New
Mar 19
First Quarter

Hourly Weather History & Observations

Time (MST) Temp. Windchill Dew Point Humidity Pressure Visibility Wind Dir Wind Speed Gust Speed Precip Events Conditions
12:53 AM 19.9 °F 7.9 °F 10.0 °F 65% 30.06 in 10.0 mi WSW 11.5 mph - N/A   Overcast
1:44 AM 19.4 °F 7.9 °F 10.4 °F 68% 29.95 in 10.0 mi West 10.4 mph - N/A   Overcast
1:53 AM 21.0 °F 9.3 °F 10.9 °F 65% 30.06 in 10.0 mi West 11.5 mph - N/A   Overcast
2:53 AM 19.9 °F 9.3 °F 12.0 °F 71% 30.05 in 9.0 mi WSW 9.2 mph - 0.00 in Snow Light Snow
3:53 AM 19.0 °F 6.1 °F 12.9 °F 77% 30.09 in 10.0 mi WSW 12.7 mph - 0.00 in   Overcast
5:11 AM 19.4 °F 9.5 °F 14.0 °F 80% 30.02 in 10.0 mi WSW 8.1 mph - N/A   Overcast
5:22 AM 19.4 °F 11.5 °F 14.0 °F 80% 30.02 in 9.0 mi WSW 5.8 mph - 0.00 in Snow Light Snow
5:53 AM 19.0 °F 12.3 °F 14.0 °F 81% 30.15 in 9.0 mi West 4.6 mph - 0.00 in Snow Light Snow
6:53 AM 19.0 °F - 12.9 °F 77% 30.17 in 10.0 mi Calm Calm - 0.00 in   Overcast
7:53 AM 19.9 °F 13.4 °F 12.0 °F 71% 30.19 in 8.0 mi West 4.6 mph - 0.00 in Snow Light Snow
8:53 AM 21.9 °F - 12.9 °F 68% 30.20 in 10.0 mi Calm Calm - 0.00 in   Overcast
9:53 AM 21.9 °F 14.5 °F 12.0 °F 66% 30.22 in 10.0 mi West 5.8 mph - N/A   Scattered Clouds
10:53 AM 25.0 °F 14.8 °F 10.9 °F 55% 30.22 in 10.0 mi West 10.4 mph - N/A   Clear
11:53 AM 26.1 °F 15.6 °F 10.9 °F 53% 30.22 in 10.0 mi West 11.5 mph - N/A   Clear
12:53 PM 27.0 °F 16.7 °F 10.0 °F 49% 30.21 in 10.0 mi West 11.5 mph - N/A   Clear
1:53 PM 28.0 °F 18.6 °F 10.0 °F 47% 30.19 in 10.0 mi West 10.4 mph - N/A   Clear
2:53 PM 28.0 °F 22.8 °F 9.0 °F 45% 30.20 in 10.0 mi West 4.6 mph - N/A   Clear
3:53 PM 26.1 °F 21.9 °F 9.0 °F 49% 30.22 in 10.0 mi South 3.5 mph - N/A   Clear
4:53 PM 21.9 °F 17.2 °F 9.0 °F 58% 30.23 in 10.0 mi ESE 3.5 mph - N/A   Clear
5:53 PM 21.9 °F 14.5 °F 8.1 °F 55% 30.23 in 10.0 mi SE 5.8 mph - N/A   Clear
6:53 PM 19.9 °F 14.9 °F 6.1 °F 55% 30.24 in 10.0 mi ENE 3.5 mph - N/A   Clear
7:53 PM 19.9 °F 14.9 °F 5.0 °F 52% 30.25 in 10.0 mi Variable 3.5 mph - N/A   Clear
8:53 PM 15.1 °F - 3.9 °F 61% 30.26 in 10.0 mi Calm Calm - N/A   Clear
9:53 PM 12.0 °F - 1.9 °F 64% 30.27 in 10.0 mi Calm Calm - N/A   Clear
10:53 PM 18.0 °F 5.4 °F 3.9 °F 54% 30.21 in 10.0 mi East 11.5 mph - N/A   Clear
11:53 PM 17.1 °F 2.5 °F 3.9 °F 56% 30.20 in 10.0 mi ENE 15.0 mph 19.6 mph N/A   Clear